Volver al catálogo

STARLINK-35521

ActivoComunicacionesVLEO
NORAD 65916·PAYLOAD·🇺🇸 United States

Lanzado Oct 8, 2025 desde Vandenberg Space Force Base

Loading…

Próximos Pases (próximas 24 horas)

TLE

ActualizadoSource: CelesTrak SupGP

Época: Sep 15, 2026, 02:47 UTC

1 65916C 25225G   26258.11645833  .00064612  00000+0  19086-2 0  2589
2 65916  53.1605   3.1608 0001131  90.1685  51.8209 15.34364421    11

Sigue STARLINK-35521 en tiempo real con AllMySat

Download on the App Store